Observations for Trim Market St
| Time | AQI | Temp °C | Hum % | Pres Pa | CO μg/m³ | H₂S μg/m³ | NO μg/m³ | NO₂ μg/m³ | O₃ μg/m³ | SO₂ μg/m³ | PM1 μg/m³ | PM2.5 μg/m³ | PM10 μg/m³ |
|---|---|---|---|---|---|---|---|---|---|---|---|---|---|
| Tuesday 25 August 2026 | |||||||||||||
| 15:15 | 3 | 25.2 | 42 | 65,280 | 0 | 4.41 | 0.95 | 20.11 | 111.76 | 0 | 2.85 | 5.42 | 5.94 |
| 15:11 | 3 | 25.5 | 42 | 65,410 | 0 | 6.05 | 0.94 | 27.63 | 94.92 | 0 | 3.56 | 8.61 | 10.71 |
| 15:10 | 3 | 25.5 | 41 | 65,466 | 0 | 4 | 0.93 | 18.4 | 112.73 | 0 | 2.85 | 5.99 | 6.73 |
| 15:09 | 3 | 25.6 | 41 | 65,540 | 0 | 3.76 | 0.83 | 18.72 | 120.81 | 0 | 2.85 | 8.12 | 10.72 |
| 15:08 | 3 | 25.7 | 41 | 65,607 | 0 | 2.98 | 0.85 | 17.99 | 101.73 | 0 | 2.85 | 6.55 | 8.33 |
| 15:07 | 3 | 25.8 | 40 | 65,633 | 0 | 3.03 | 0.86 | 19.24 | 130.31 | 0 | 3.56 | 6.03 | 7.53 |
| 15:06 | 3 | 25.9 | 40 | 65,670 | 0 | 0 | 0.82 | 17.07 | 105.43 | 0 | 4.99 | 7.63 | 9.94 |
| 15:05 | 3 | 26 | 40 | 65,686 | 0 | 0.25 | 0.8 | 17.84 | 100.2 | 0 | 3.56 | 6.58 | 9.14 |
| 15:04 | 3 | 26.1 | 40 | 65,702 | 0 | 0 | 0.87 | 17.5 | 93.02 | 0 | 3.56 | 7.12 | 8.33 |
| 15:03 | 3 | 26.1 | 40 | 65,728 | 0 | 0.78 | 0.95 | 20.45 | 99.56 | 0 | 5.7 | 8.72 | 10.76 |
| 15:02 | 3 | 26.3 | 39 | 65,726 | 0 | 0.13 | 0.94 | 18.53 | 101.91 | 0 | 2.85 | 6.61 | 8.33 |
| 15:01 | 3 | 26.3 | 39 | 65,748 | 0 | 0 | 1 | 20.68 | 89.7 | 0 | 2.85 | 6.1 | 6.72 |
| 15:00 | 3 | 26.4 | 39 | 65,748 | 0 | 0 | 1.02 | 17.81 | 92.77 | 0 | 2.85 | 6.64 | 7.53 |
| 14:59 | 3 | 26.4 | 39 | 65,750 | 0 | 0 | 1.01 | 17.52 | 104.24 | 0 | 4.28 | 7.7 | 9.15 |
| 14:58 | 3 | 26.5 | 39 | 65,752 | 0 | 0 | 0.95 | 20.49 | 84.38 | 0 | 3.56 | 6.64 | 8.34 |
| 14:56 | 3 | 26.6 | 39 | 65,756 | 0 | 0 | 0.93 | 18.41 | 79.75 | 0 | 3.56 | 5.59 | 9.96 |
| 14:55 | 3 | 26.6 | 39 | 65,760 | 0 | 0 | 0.93 | 19.23 | 89.35 | 0 | 1.43 | 5.58 | 5.9 |
| 14:54 | 3 | 26.6 | 39 | 65,764 | 0 | 0 | 0.9 | 16.1 | 81.24 | 0 | 1.43 | 4.51 | 4.96 |
| 14:53 | 3 | 26.6 | 39 | 65,768 | 0 | 0 | 0.91 | 15.75 | 85.11 | 0 | 3.56 | 6.1 | 6.72 |
| 14:52 | 3 | 26.7 | 39 | 65,768 | 0 | 0 | 0.92 | 20.09 | 89.31 | 0 | 2.14 | 4.51 | 5.91 |